TimeEST,TemperatureF,Dew PointF,Humidity,Sea Level PressureIn,VisibilityMPH,Wind Direction,Wind SpeedMPH,Gust SpeedMPH,PrecipitationIn,Events,Conditions,WindDirDegrees,DateUTC
12:54 AM,35.1,30.0,82,30.21,10.0,South,4.6,-,N/A,,Clear,180,2012-11-20 05:54:00
1:54 AM,34.0,30.0,85,30.19,10.0,SE,5.8,-,N/A,,Clear,140,2012-11-20 06:54:00
2:54 AM,35.1,30.0,82,30.19,10.0,WSW,3.5,-,N/A,,Clear,240,2012-11-20 07:54:00
3:54 AM,35.1,30.0,82,30.17,10.0,South,3.5,-,N/A,,Clear,190,2012-11-20 08:54:00
4:54 AM,34.0,30.0,85,30.19,10.0,SW,8.1,-,N/A,,Clear,220,2012-11-20 09:54:00
5:54 AM,33.1,30.0,89,30.18,10.0,SSW,4.6,-,N/A,,Clear,210,2012-11-20 10:54:00
7:54 AM,33.1,30.0,89,30.19,10.0,SSW,4.6,-,N/A,,Clear,210,2012-11-20 12:54:00
8:54 AM,35.1,30.9,85,30.18,8.0,SW,4.6,-,N/A,,Clear,230,2012-11-20 13:54:00
9:54 AM,37.0,32.0,82,30.18,9.0,SW,5.8,-,N/A,,Clear,230,2012-11-20 14:54:00
10:54 AM,41.0,32.0,70,30.17,10.0,South,4.6,-,N/A,,Clear,190,2012-11-20 15:54:00
11:54 AM,45.0,32.0,60,30.14,10.0,West,4.6,-,N/A,,Clear,260,2012-11-20 16:54:00
12:54 PM,46.0,30.9,56,30.12,10.0,Calm,Calm,-,N/A,,Clear,0,2012-11-20 17:54:00
1:54 PM,46.9,27.0,46,30.11,10.0,WNW,3.5,-,N/A,,Clear,300,2012-11-20 18:54:00
2:54 PM,46.9,28.9,50,30.11,10.0,WNW,5.8,-,N/A,,Clear,300,2012-11-20 19:54:00
3:54 PM,46.9,28.0,48,30.11,10.0,NW,4.6,-,N/A,,Clear,320,2012-11-20 20:54:00
4:54 PM,43.0,28.9,58,30.12,10.0,WNW,5.8,-,N/A,,Mostly Cloudy,300,2012-11-20 21:54:00
5:54 PM,42.1,27.0,55,30.13,10.0,NW,3.5,-,N/A,,Partly Cloudy,310,2012-11-20 22:54:00
6:54 PM,41.0,28.0,60,30.14,10.0,NW,4.6,-,N/A,,Clear,310,2012-11-20 23:54:00
7:54 PM,42.1,28.0,58,30.15,10.0,WNW,4.6,-,N/A,,Clear,300,2012-11-21 00:54:00
8:54 PM,41.0,28.9,62,30.16,10.0,NNW,3.5,-,N/A,,Partly Cloudy,340,2012-11-21 01:54:00
9:54 PM,39.0,30.0,70,30.16,10.0,NW,4.6,-,N/A,,Scattered Clouds,320,2012-11-21 02:54:00
10:54 PM,39.9,28.9,65,30.15,10.0,Calm,Calm,-,N/A,,Clear,0,2012-11-21 03:54:00
11:54 PM,39.9,28.9,65,30.14,10.0,West,3.5,-,N/A,,Clear,260,2012-11-21 04:54:00